| time (UTC) | temp C | wind direction | speed KPH | gust KPH | rain 1hr cm | rain 24hr cm | rain mn cm | humidity % | barometer mb |
| 20260502195201 | 15 | 7 | 0.0 | 0.0 | 0.00 | 0.00 | 0.00 | 57 | 1007.8 |
| 20260502193204 | 15 | 338 | 0.0 | 0.0 | 0.00 | 0.00 | 0.00 | 58 | 1007.8 |
| 20260502191202 | 15 | 331 | 0.0 | 0.0 | 0.00 | 0.00 | 0.00 | 61 | 1007.8 |
| 20260502185203 | 15 | 331 | 0.0 | 0.0 | 0.00 | 0.00 | 0.00 | 61 | 1007.7 |
| 20260502183204 | 15 | 333 | 0.0 | 0.0 | 0.00 | 0.00 | 0.00 | 60 | 1007.6 |
| 20260502181202 | 15 | 331 | 0.0 | 0.0 | 0.00 | 0.00 | 0.00 | 59 | 1007.3 |
| 20260502163201 | 14 | 333 | 0.0 | 0.0 | 0.00 | 0.00 | 0.00 | 60 | 1007.5 |
| 20260502161202 | 14 | 333 | 0.0 | 0.0 | 0.00 | 0.00 | 0.00 | 59 | 1007.4 |
| 20260502151202 | 15 | 333 | 0.0 | 0.0 | 0.00 | 0.00 | 0.00 | 56 | 1007.7 |
| 20260502123203 | 18 | 351 | 0.0 | 0.0 | 0.00 | 0.00 | 0.00 | 47 | 1006.9 |
| 20260502121202 | 18 | 353 | 0.0 | 0.0 | 0.00 | 0.00 | 0.00 | 45 | 1006.7 |
| 20260502115202 | 18 | 358 | 0.0 | 0.0 | 0.00 | 0.00 | 0.00 | 44 | 1006.4 |
| 20260502113206 | 19 | 355 | 0.0 | 0.0 | 0.00 | 0.00 | 0.00 | 44 | 1006.3 |
| 20260502111202 | 20 | 353 | 0.0 | 0.0 | 0.00 | 0.00 | 0.00 | 41 | 1005.8 |
| 20260502105201 | 21 | 354 | 0.0 | 0.0 | 0.00 | 0.00 | 0.00 | 37 | 1005.6 |
| 20260502103201 | 21 | 35 | 0.0 | 0.0 | 0.00 | 0.00 | 0.00 | 30 | 1005.1 |
| 20260502101201 | 22 | 35 | 0.0 | 0.0 | 0.00 | 0.00 | 0.00 | 27 | 1004.9 |
| 20260502091203 | 23 | 35 | 0.0 | 8.0 | 0.00 | 0.00 | 0.00 | 22 | 1004.1 |
| 20260502071201 | 26 | 22 | 0.0 | 22.5 | 0.00 | 0.00 | 0.00 | 19 | 1002.6 |
| 20260502065201 | 26 | 26 | 3.2 | 22.5 | 0.00 | 0.00 | 0.00 | 18 | 1002.6 |
| 20260502063201 | 27 | 31 | 4.8 | 20.9 | 0.00 | 0.00 | 0.00 | 18 | 1002.3 |
| 20260502061200 | 27 | 72 | 9.7 | 25.7 | 0.00 | 0.00 | 0.00 | 18 | 1001.7 |
| 20260502054909 | 28 | 46 | 9.7 | 25.7 | 0.00 | 0.00 | 0.00 | 17 | 1001.6 |
| 20260502050909 | 27 | 333 | 1.6 | 29.0 | 0.00 | 0.00 | 0.00 | 18 | 1000.8 |
| 20260502044908 | 27 | 72 | 11.3 | 32.2 | 0.00 | 0.00 | 0.00 | 17 | 1000.7 |
| 20260502034907 | 27 | 309 | 11.3 | 41.8 | 0.00 | 0.00 | 0.00 | 16 | 1000.3 |
| 20260502032908 | 26 | 50 | 19.3 | 29.0 | 0.00 | 0.00 | 0.00 | 16 | 1000.1 |
| 20260502030906 | 27 | 317 | 25.7 | 29.0 | 0.00 | 0.00 | 0.00 | 17 | 1000.0 |
| 20260502024906 | 26 | 323 | 12.9 | 30.6 | 0.00 | 0.00 | 0.00 | 17 | 999.9 |
| 20260502022907 | 26 | 299 | 11.3 | 25.7 | 0.00 | 0.00 | 0.00 | 16 | 999.5 |
| 20260502020908 | 26 | 310 | 16.1 | 25.7 | 0.00 | 0.00 | 0.00 | 17 | 999.5 |
| 20260502014907 | 26 | 36 | 22.5 | 17.7 | 0.00 | 0.00 | 0.00 | 17 | 999.6 |
| 20260502012906 | 25 | 324 | 16.1 | 0.0 | 0.00 | 0.00 | 0.00 | 18 | 999.4 |
| 20260502010906 | 24 | 32 | 4.8 | 0.0 | 0.00 | 0.00 | 0.00 | 26 | 999.3 |
| 20260502004909 | 23 | 250 | 0.0 | 0.0 | 0.00 | 0.00 | 0.00 | 29 | 999.4 |
| 20260502002909 | 22 | 48 | 0.0 | 0.0 | 0.00 | 0.00 | 0.00 | 31 | 999.1 |
| 20260502000907 | 21 | 127 | 0.0 | 0.0 | 0.00 | 0.00 | 0.00 | 38 | 999.1 |
| 20260501234906 | 20 | 107 | 0.0 | 0.0 | 0.00 | 0.00 | 0.00 | 39 | 999.0 |
| 20260501232907 | 20 | 186 | 0.0 | 0.0 | 0.00 | 0.00 | 0.00 | 41 | 998.4 |
| 20260501230907 | 18 | 58 | 0.0 | 0.0 | 0.00 | 0.00 | 0.00 | 46 | 998.5 |
| 20260501224907 | 17 | 152 | 0.0 | 0.0 | 0.00 | 0.00 | 0.00 | 52 | 998.1 |
| 20260501222908 | 17 | 221 | 0.0 | 0.0 | 0.00 | 0.00 | 0.00 | 54 | 997.5 |